Location: River House Observatory
(37.8577°N, 76.3548°W)
Time: 10:39:52
(UTC-05:00)

Hubble Space Telescope - Pass Details

Date: 22 January 2018
Orbit: 537 x 541 km, 28.5° (Epoch: 19 February)

Event Time Altitude Azimuth Distance (km) Brightness Sun altitude
Rises 19:03:35 0° 216° (SW) 2,664 5.0 -20.8°
Reaches altitude 10° 19:07:09 10° 184° (S) 1,777 3.6 -21.5°
Enters shadow 19:08:31 12° 165° (SSE) 1,660 3.2 -21.7°
